Other Public Products
Issued by NWS Charleston, SC

Current Version | Previous Version | Graphics & Text | Print | Product List | Glossary On
Versions: 1 2 3 4 5 6 7 8 9 10 11 12 13 14 15 16 17 18 19 20 21 22 23 24 25 26 27 28 29 30 31 32 33 34 35 36 37 38 39 40 41 42 43 44 45 46 47 48 49 50
201
FPUS82 KCHS 271511
OPUCHS

TEST...KCHS/KSAV Gateway Observations...TEST
National Weather Service Charleston SC
1000 AM EST MON FEB 27 2017

NOTE: "fair" indicates few or no clouds below 12,000 feet with no
significant weather and/or obstructions to visibility.

SCZ050-WAZ558-NCZ071-TXZ119-213-PAZ071-DCZ001-FLZ074-172-MI076-
NYZ176-178-MAZ016-IL014-TNZ027-NJZ106-GAZ044-MD014-271600-
...Gateway Observations for Charleston International...

CITY           SKY/WX    TMP DP  RH WIND       PRES   REMARKS
Chas Airport   MOSUNNY   68  44  42 SE13      30.37R
Seattle        LGT RAIN  36  34  92 SE9       29.74F WCI  29
Charlotte      CLOUDY    53  34  48 S8        30.42R
Dallas DFW     CLOUDY    65  63  93 SE9       29.95R FOG
Dallas Love    CLOUDY    67  62  84 S9        29.96R HAZE
Philladelphia  PTSUNNY   47  27  45 SW10      30.45S
Wash National  CLOUDY    46  36  68 S6        30.44S
Baltimore      PTSUNNY   44  36  73 CALM      30.44R
Miami          PTSUNNY   80  65  59 E18       30.24R
Detroit        MOSUNNY   41  25  53 SW7       30.24R
Newark         PTSUNNY   45  24  43 SW14      30.43R
Laguardia      PTSUNNY   46  23  40 SW10      30.43R
J F K          PTSUNNY   43  28  55 SW15      30.45R
Boston Logan   MOSUNNY   44  20  38 SW15G23   30.33S
Ft. Lauderdale MOSUNNY   79  65  62 SE18      30.24R
Chicago O`Hare MOSUNNY   40  30  67 SW3       30.15S
Chicago Midway SUNNY     40  30  67 S6        30.17R WCI  36
Houston Bush   PTSUNNY   73  68  84 S8        30.01R
Houston Hobby  PTSUNNY   73  69  87 S9        30.01R FOG
Nashville      CLOUDY    48  35  60 S14       30.19F
Atlanta        CLOUDY    52  31  44 SE13G20   30.26F

$$

GAZ044-118-TXZ119-213-NCZ071-DCZ001-MDZ014-506-PAZ021-071-NJZ106-
NYZ176-178-MAZ106-OHZ011-021-055-MIZ076-KYZ091-ILZ014-INZ047-
MNZ060-ONZ431-271600-
...Gateway Observations for Savannah International...

CITY           SKY/WX    TMP DP  RH WIND       PRES   REMARKS
Savannah Arpt  PTSUNNY   67  52  58 E9        30.33R
Atlanta        CLOUDY    52  31  44 SE13G20   30.26F
Charlotte      CLOUDY    53  34  48 S8        30.42R
Dallas DFW     CLOUDY    65  63  93 SE9       29.95R FOG
Houston Bush   PTSUNNY   73  68  84 S8        30.01R
Wash National  CLOUDY    46  36  68 S6        30.44S
Wash Dulles    CLOUDY    43  25  49 S5        30.42S
Baltimore      PTSUNNY   44  36  73 CALM      30.44R
Philadelphia   PTSUNNY   47  27  45 SW10      30.45S
Newark         PTSUNNY   45  24  43 SW14      30.43R
Laguardia      PTSUNNY   46  23  40 SW10      30.43R
J F K          PTSUNNY   43  28  55 SW15      30.45R
Boston         MOSUNNY   44  20  38 SW15G23   30.33S
Pittsburg      CLOUDY    42  18  37 SW9       30.29R
Akron          CLOUDY    40  20  44 S8        30.28R WCI  34
Cleveland      CLOUDY    44  21  40 SW9       30.29R
Cincinnati     CLOUDY    42  40  92 SE6       30.24F
Columbus       DRIZZLE   42  34  74 S12       30.29R
Detroit        MOSUNNY   41  25  53 SW7       30.24R
Chicago O`Hare MOSUNNY   40  30  67 SW3       30.15S
Minneapolis    MOSUNNY   33  20  58 SW13      29.97R WCI  24
Indianapolis   PTSUNNY   44  29  55 S10       30.21S
Toronto Canada MOSUNNY   41  27  56 SW18      30.18R

$$




USA.gov is the U.S. government's official web portal to all federal, state and local government web resources and services.